Location: Cantaing
(50.1487°N, 3.1675°E)
Time: 09:29:46
(UTC+00:00)

AQUARIUS - Pass Details

Date: 14 January 2026
Orbit: 633 x 636 km, 98.0° (Epoch: 17 February)

Event Time Altitude Azimuth Distance (km) Brightness Sun altitude
Rises 06:34:57 0° 15° (NNE) 2,947 7.5 -10.3°
Reaches altitude 10° 06:37:10 10° 16° (NNE) 2,034 6.7 -10.0°
Maximum altitude 06:41:36 78° 103° (ESE) 656 4.3 -9.3°
Drops below altitude 10° 06:45:59 10° 190° (S) 2,015 6.9 -8.6°
Sets 06:48:11 0° 192° (SSW) 2,918 7.7 -8.3°
